FALCON 9 R/B, 42819

Orbit data source: Space-Track

FALCON 9 R/B, 42819 is space debris in HEO originally from a launch on Wed, 05 Jul 2017 UTC launched from the Air Force Eastern Test Range (AFETR). Debris objects in space refer to the collection of defunct objects orbiting the Earth. Examples of debris include non-operational satellites, rocket bodies, and fragments generated from explosions, collisions, or faulty payload assembly.

Loading next visibility...
Identifier
42819, 2017-041B
Orbit
HEO
Country
Flag of USUS
Related business
Manufacturer
SpaceX
Mission
Spacecraft
Bus & Motor
F9ST2, Unknown motor
Mass
~4,000 kg wet, ~4,000 kg dry
Launch date (UTC)
2017-07-05 (8 years ago)
Launch vehicle
Unknown
Launch site
Air Force Eastern Test Range (AFETR)
Object type
Payload
Rocket body
Debris
Shape & HBR
Cyl, 7.8 m
Radar Cross Section
39.980 m², Large (>1 m²)

Expand to show TLE details & history
Last TLE update: 2 days ago

TLE from 2 days ago
0 FALCON 9 R/B
1 42819U 17041B   25306.02933859  .00001500  00000-0  22692-2 0  9991
2 42819  25.7661 254.2550 7441919 311.8135   5.2180  2.04162355 58730
Epoch: 2025-11-02T00:42Z
TLE epoch observation values (Epoch: 2025-11-02T00:42:14.854Z)
Latitude
0.00016°
Longitude
-158.00811°
Altitude
1,418.196 km
Speed
9.331 km/s
True Right ascension
16h 56m 25s
True Declination
0° 00' 01"
Sunlit
Object was in daylight at epoch
Visualization orbit readout
Latitude
Unknown
Longitude
Unknown
Altitude
Unknown
Speed
Unknown
Apparent Right ascension
Unknown
Apparent Declination
Unknown
Sunlit
N/A
Visualization observer readout
Local Sidereal Time
15:18:06
Azimuth
Unknown
Elevation
Unknown
Doppler factor
Unknown
Orbital elements
Apogee altitude
39,409.266 km
Perigee altitude
337.173 km
Semi-major axis
26,251.357 km
Eccentricity
0.74419
Inclination
25.7661°
RAAN
254.255°
Arg. of periapsis
311.8135°
True anomaly
47.96357°
Mean anomaly
5.218°
Eccentric anomaly
19.33635°
Mean motion
0.51029 °/min
Orbital period
705.48 mins
BSTAR
0.0022692
Loading maneuver chart data...
Computing Atmospheric mass density...
Loading historical data...
Loading historical data...
Loading historical data...
Loading historical data...
Loading historical data...
Loading historical data...
Loading historical data...
Other satellites on launch #41 in the year 2017 (2017-07-05 UTC)

Documentation

Showing up to 5 results
|